User: anonymous   Login
Location: Brno
(49.2000°N, 16.6330°E)
Time: 11:14:34
(UTC+02:00)
Language:

Cosmos 1459 Rocket - Orbit

View from above orbital plane
View from above orbital plane
View from above satellite
View from above satellite

Ground track
Ground track

The orbit data is extracted from the following two-line orbital elements,

1 14059U 83042B   16180.90584981 -.00000007  00000-0 -22198-4 0  9991
2 14059  82.9716 324.1345 0042742 177.2662 292.9387 13.78558889667085
Epoch (UTC): 28 June 2016 21:44:25
Eccentricity: 0.0042742
inclination: 82.9716°
perigee height: 937 km
apogee height: 1000 km
right ascension of ascending node: 324.1345°
argument of perigee: 177.2662°
revolutions per day: 13.78558889
mean anomaly at epoch: 292.9387°
orbit number at epoch: 66708

The dashed part of the orbit path shows where the satellite is in the earth's shadow,  

DLR